weather.gov     
National Weather Service

Terminal Aerodrome Forecast
NWS Homepage
This page is being discontinued on March 12, 2014.
The same data is available at this site. Please update your bookmarks.
Thank you, and we apologize for the inconvenience.
Please send an email to SR-SRH.Webmaster@noaa.gov with any concerns.


Current Version
Previous Version:    01  02  03  04  05  06  07  08  09  10  11  12  13  14  15  16  17  18  19  20  21  22  23  24  25  26  27  28  29  30  
[Printable]
676
FTAK31 PAFA 241127
TAFAMC
TAF
PAMC 241127Z 2412/2512 13005KT 2SM -SN BR SCT023 OVC035
      TEMPO 2412/2414 3SM -SN BR BKN007 OVC021
     FM241600 VRB03KT 3SM -SN BR SCT007 OVC021
     FM241900 VRB03KT P6SM -SHSN SCT021 OVC035
     FM250200 VRB03KT P6SM SCT035 BKN100=


676
FTAK31 PAFA 241127
TAFAMC
TAF
PAMC 241127Z 2412/2512 13005KT 2SM -SN BR SCT023 OVC035
      TEMPO 2412/2414 3SM -SN BR BKN007 OVC021
     FM241600 VRB03KT 3SM -SN BR SCT007 OVC021
     FM241900 VRB03KT P6SM -SHSN SCT021 OVC035
     FM250200 VRB03KT P6SM SCT035 BKN100=




U.S. Dept. of Commerce
NOAA National Weather Service
1325 East West Highway
Silver Spring, MD 20910
E-mail: w-nws.webmaster@noaa.gov
Page last modified: May 16, 2007
NATIONAL WEATHER SERVICE: for Safety, for Work, for Fun - FOR LIFE